GFSNGP_con_3kmhel_216.txt.gz
Helicity
254 245 227 200 174 108 16 2 -55 -43 -24 29 -41 -111 -80 -39 -9 -2 21 5 7 12 26 60 116 141 93 52 54 81 77 72 89 65 51 80 141 208 229 210 174 248 343 354
176 120 122 128 92 49 9 -26 -59 -10 -4 19 26 67 55 8 -7 2 26 1 -9 26 44 48 79 113 136 131 71 66 79 32 60 126 118 106 168 223 237 253 220 214 326 383
98 41 61 101 38 14 23 15 44 4 16 77 75 76 75 109 103 89 40 36 55 39 19 -1 27 58 106 111 108 106 86 79 35 56 114 137 145 205 228 197 183 196 237 342
33 56 50 148 126 81 73 89 66 50 61 69 52 89 87 74 81 76 87 79 71 61 24 -22 -26 -16 29 29 51 68 86 91 82 49 62 130 97 155 189 142 141 198 247 314
108 80 112 90 54 32 49 99 55 54 58 64 67 53 29 44 67 69 73 65 54 40 34 16 -31 -21 -27 -4 11 32 51 63 65 95 71 75 104 102 106 146 153 180 238 309
72 98 100 126 71 46 28 83 141 86 86 78 68 77 73 111 79 54 57 61 48 44 41 29 -8 -15 -6 10 6 13 33 48 68 99 122 120 111 112 115 160 173 211 261 270
44 59 65 87 51 28 62 124 135 121 108 90 76 94 82 47 49 45 42 44 51 52 44 24 9 -9 -1 29 28 21 34 60 82 111 116 112 121 116 149 170 189 233 280 306
27 73 55 50 33 38 119 98 92 72 56 39 36 30 27 20 23 26 26 33 38 41 39 32 18 -0 20 47 18 18 33 100 166 183 142 149 161 184 214 285 285 255 310 337
57 79 65 60 50 44 38 35 48 44 46 39 31 26 23 22 22 25 34 40 43 45 34 26 22 5 -8 5 7 46 72 187 241 223 214 226 216 209 226 227 260 271 309 318
40 51 50 35 39 70 62 50 44 33 26 61 29 30 32 30 23 27 31 42 49 52 62 66 60 46 41 5 28 65 144 270 309 251 259 309 321 266 238 246 263 283 282 279
18 29 42 42 74 71 45 38 43 67 94 60 52 57 51 35 21 26 43 54 61 66 73 67 52 44 21 46 47 90 250 305 296 276 254 318 293 257 287 281 219 197 192 155
46 89 58 67 94 49 50 57 63 70 58 71 68 60 51 35 26 28 30 33 18 25 -11 -39 -43 -57 10 37 95 266 288 354 324 317 346 286 312 302 170 128 132 165 184 147
71 62 48 50 49 61 58 58 50 47 50 40 34 45 36 28 29 16 -14 -5 -84 -80 -90 -82 -74 -87 44 46 197 271 286 341 362 409 276 236 249 241 246 259 246 188 156 149
46 36 29 43 40 44 16 21 28 18 28 32 26 20 19 12 -19 -42 -81 -73 -44 -38 -15 -3 58 74 176 220 230 236 316 385 370 248 221 217 190 198 201 219 209 193 175 125
35 23 17 28 -20 27 26 22 14 15 23 21 32 3 -2 -15 -33 -44 -31 11 8 -5 43 87 109 157 183 226 299 421 596 475 274 229 212 190 197 193 182 179 177 169 119 102
8 -12 -23 -14 12 10 14 18 10 15 30 35 13 7 20 -22 -48 -26 -23 -1 25 50 55 75 123 177 244 281 357 423 332 260 231 225 182 122 121 138 128 144 122 82 54 31
11 -0 -4 -9 -16 1 22 23 16 14 39 32 37 43 -7 -41 -19 -10 -15 3 25 54 87 139 173 171 225 321 352 257 213 205 148 96 72 76 92 92 82 71 64 57 47 37
-2 -20 -26 -13 -9 10 26 24 17 30 40 51 43 8 -31 -8 19 5 8 20 59 85 111 118 146 135 126 141 161 144 146 81 39 49 58 70 72 68 64 54 57 50 29 1
-8 -10 -5 5 10 17 26 27 31 31 25 19 27 -0 -26 -15 -1 10 58 50 45 59 98 91 114 99 103 103 71 33 21 43 73 88 92 88 101 103 97 78 55 40 30 25
7 15 15 18 11 15 20 39 38 31 22 5 5 -8 -23 -23 -6 30 50 76 44 32 39 21 13 35 48 51 32 30 47 61 67 89 94 85 96 98 71 57 48 48 53 55
33 42 55 47 24 7 25 40 35 31 21 10 -1 -8 -17 -22 -15 13 21 49 34 38 46 61 61 52 50 55 54 57 65 84 95 92 89 94 90 75 66 62 56 48 51 62
35 48 56 42 37 20 22 29 25 24 28 16 11 -2 -8 -15 -17 1 18 22 14 27 29 43 58 73 69 71 72 73 73 73 83 83 83 86 77 66 59 53 52 54 61 63
16 24 28 36 38 21 25 27 24 23 21 26 25 23 -2 -1 -1 -8 26 49 33 32 29 36 45 60 81 93 95 89 88 91 87 75 75 73 64 57 59 72 74 67 63 63
33 40 41 34 30 25 21 30 32 27 22 27 36 33 18 -1 -7 -4 -2 45 56 41 40 44 58 65 58 68 73 76 77 76 75 76 70 68 70 74 76 68 62 64 64 59
42 44 50 52 43 47 37 34 35 31 33 28 33 36 31 25 1 4 5 8 37 67 52 46 54 64 70 78 78 80 85 90 86 85 83 84 80 74 72 70 69 63 59 63
49 52 49 44 52 57 53 49 52 57 55 52 45 50 48 31 34 28 3 -0 -0 12 46 52 49 61 72 77 85 85 82 84 85 84 78 75 73 75 75 58 55 56 57 52
50 69 58 35 64 96 83 65 52 61 68 64 54 55 46 45 35 34 39 19 7 10 28 51 62 76 75 84 82 80 79 80 82 81 73 71 76 73 68 62 52 54 45 45

GFSNGP_con_3kmhel_222.txt.gz
Helicity
162 210 214 223 31 -44 -66 -27 -47 98 66 -1 9 -5 -58 -43 -26 -1 6 -13 22 53 52 34 40 63 51 62 44 -29 31 33 66 77 84 94 58 81 95 87 99 105 115 183
117 39 63 153 210 44 -53 -46 -16 -13 49 -3 -46 -18 -20 -17 -42 85 59 60 73 28 46 43 41 19 40 60 65 49 60 58 6 25 47 47 7 16 12 46 73 75 100 109
140 61 43 45 40 10 17 13 -28 -31 -2 40 63 47 70 71 144 123 101 109 71 51 66 76 25 18 40 35 44 54 65 71 85 74 50 65 30 -35 26 35 45 65 67 81
-15 35 -9 1 34 54 44 55 77 77 46 49 91 113 114 134 100 84 96 96 83 55 47 47 28 20 21 17 -9 27 39 55 50 58 69 84 75 39 -3 -17 25 51 59 80
21 21 76 46 115 56 15 125 204 133 140 138 104 102 125 95 167 162 150 132 75 35 57 45 44 48 35 32 37 -4 -12 20 45 20 23 58 77 74 52 26 16 35 57 84
19 50 32 109 152 103 117 123 223 300 319 347 225 212 145 222 208 158 116 65 65 69 69 67 56 64 68 57 50 46 73 52 45 45 33 41 69 88 42 65 45 67 83 79
13 22 46 76 83 101 74 99 117 141 170 174 171 176 128 88 67 72 75 77 78 81 82 69 53 56 71 76 71 65 85 50 42 60 48 49 89 108 75 51 64 62 87 96
18 13 28 143 58 90 77 76 91 104 128 116 93 66 48 62 77 75 71 69 68 67 64 61 62 65 61 65 69 72 88 96 91 102 63 63 105 101 49 44 65 88 103 129
-22 -12 35 49 68 49 67 72 85 78 53 44 48 49 63 51 32 42 59 59 84 80 60 54 58 77 93 93 83 85 85 100 121 133 132 128 118 98 74 73 91 102 110 124
-1 -29 -63 -91 -27 22 40 51 46 41 58 75 79 75 48 41 101 72 77 83 93 115 117 119 103 90 84 105 192 152 114 107 143 212 161 117 112 92 104 127 134 137 132 152
3 14 -3 68 88 64 71 51 67 78 82 82 68 60 89 78 58 55 45 58 68 66 47 38 37 43 48 52 47 78 122 193 197 241 199 138 94 91 110 146 127 155 177 198
-6 10 28 51 60 37 70 61 58 75 45 46 42 40 37 45 59 61 52 48 47 51 52 37 29 35 50 65 79 101 81 104 206 257 243 211 142 148 147 127 150 167 206 246
51 61 13 -11 15 96 49 64 44 16 34 40 59 53 57 61 58 55 49 57 56 25 13 -13 -43 -25 13 48 73 98 135 168 188 263 279 239 163 190 261 254 212 189 204 240
107 43 63 96 63 46 46 29 21 23 49 72 64 55 61 59 45 34 27 19 -7 -28 -89 -103 -81 -47 -22 3 1 39 -2 89 169 274 293 203 210 269 295 308 322 319 320 227
61 57 62 39 32 26 15 15 8 21 30 45 65 50 25 11 -14 -46 -51 -36 -55 -79 -68 -73 -45 4 47 43 51 149 209 149 172 256 255 257 281 320 324 328 352 336 329 177
47 55 39 41 21 17 17 26 15 11 40 49 50 31 -22 -35 -34 -42 -57 -58 -71 -43 -37 -37 21 70 119 109 171 100 67 111 214 261 286 315 329 336 335 358 250 201 178 145
37 42 25 23 23 16 34 32 23 27 42 61 49 26 -24 -39 -51 -59 -44 -50 -42 -12 -35 -5 44 135 170 160 180 222 228 274 255 262 286 276 303 323 291 270 256 195 150 93
30 17 17 28 17 11 21 39 35 33 40 52 54 57 37 -40 -49 -54 -47 -36 -18 -14 -20 57 69 69 123 164 220 233 232 249 270 274 269 253 237 239 201 178 188 215 142 72
35 36 41 38 36 45 44 56 49 36 41 56 62 61 58 15 -44 -50 -38 -56 -37 -2 35 55 102 62 46 71 79 143 171 156 143 139 134 122 126 121 103 86 88 87 72 53
57 66 63 84 88 73 54 51 47 41 42 48 56 61 61 50 -18 -44 -44 -36 -26 -31 -1 30 64 88 52 36 67 97 127 166 157 154 154 145 87 70 76 59 43 33 34 52
41 47 67 56 47 38 42 37 44 42 39 43 40 45 48 51 29 -29 -47 -38 -13 -26 -28 -10 5 37 84 83 75 80 73 91 106 106 75 79 86 100 86 47 52 71 68 74
30 28 45 58 69 62 51 42 32 43 36 33 36 38 29 13 33 -1 -3 -33 -3 -8 -11 -28 -2 21 12 27 19 31 27 65 73 84 87 76 68 56 59 67 66 78 82 76
33 34 62 79 80 66 60 67 84 49 38 35 31 33 28 17 17 10 -19 -5 -18 15 -6 -8 15 30 34 29 28 28 26 56 58 54 53 64 69 73 76 76 76 72 69 62
48 75 82 79 78 82 81 72 70 65 73 60 35 28 34 25 22 32 26 15 -9 -3 7 -4 18 37 34 35 35 41 37 41 51 59 61 71 83 89 90 87 86 90 94 91
94 80 64 72 97 96 73 57 73 54 54 44 32 40 40 41 38 22 17 8 5 -7 0 29 24 32 28 41 45 48 44 49 54 56 68 78 84 90 95 89 89 94 99 99
71 80 89 94 111 118 50 69 55 51 83 83 61 39 32 31 41 15 27 19 9 18 9 2 42 31 25 29 45 52 65 71 74 74 73 80 85 82 80 83 87 86 86 87
96 93 99 78 72 63 29 27 27 17 77 71 68 39 21 31 32 43 25 31 20 22 25 15 13 39 54 40 45 58 65 75 87 88 84 77 73 71 69 76 80 82 85 83

GFSNGP_con_3kmhel_225.txt.gz
Helicity
101 85 46 38 47 -17 -167 -148 -27 -6 -2 -33 -23 -3 -123 -78 -31 -74 -43 -35 -36 -33 -17 -25 3 9 46 53 60 -0 15 69 55 108 125 158 174 127 139 132 120 108 161 188
52 106 99 81 67 48 38 -2 -58 -38 21 -12 -25 -8 -23 -44 -53 13 25 -2 46 30 35 19 32 38 58 61 59 75 78 89 82 50 14 4 78 154 83 89 106 87 97 128
-21 34 96 100 -5 -46 -21 -2 12 32 48 13 -31 -9 70 24 38 96 75 71 50 35 27 19 4 9 6 24 44 52 58 84 91 88 79 114 85 36 28 31 27 67 48 74
-64 -33 -68 74 -10 37 121 209 33 26 84 69 97 117 134 125 128 133 134 130 113 36 27 8 18 39 15 -10 8 18 46 60 62 67 59 58 85 76 53 53 80 44 47 19
10 34 40 105 87 114 169 332 263 353 369 276 236 273 363 336 252 214 168 135 103 107 107 84 54 21 -1 7 18 21 35 55 71 54 71 79 55 47 55 69 73 54 98 75
3 40 64 31 240 243 73 138 100 215 269 283 266 265 204 140 168 197 199 166 139 112 56 34 24 29 26 23 30 51 49 60 66 86 65 68 73 57 86 74 66 64 66 90
43 20 24 47 30 73 145 82 116 114 141 186 143 62 68 96 102 86 72 83 107 90 63 54 80 65 52 40 36 40 67 93 96 101 68 58 77 113 103 83 57 64 59 59
-17 34 18 106 72 58 87 67 87 107 64 53 60 76 81 66 43 39 47 54 78 102 97 83 116 131 120 110 121 114 119 109 84 112 133 152 160 161 135 88 48 38 55 49
-3 -10 -8 183 37 54 60 82 41 54 72 68 68 57 53 39 38 67 64 62 71 115 110 76 76 93 76 71 70 70 80 61 74 140 122 194 250 193 174 91 60 71 82 77
-14 11 -18 -7 92 179 55 48 71 77 71 67 63 72 74 66 52 43 29 35 66 85 59 47 38 46 59 56 48 33 32 31 25 41 69 152 255 237 151 115 87 71 100 106
-87 -43 -60 -83 -24 -15 83 73 69 57 44 43 53 75 86 84 102 97 77 55 39 56 61 48 33 44 53 57 38 36 48 56 60 67 71 111 194 253 186 106 73 53 91 120
-63 -53 -24 -30 45 74 69 61 40 26 31 76 63 41 38 57 77 76 58 54 70 83 72 59 62 56 37 24 23 34 55 76 97 106 118 138 173 245 202 107 3 -16 39 98
42 59 58 130 75 69 72 61 51 40 35 19 16 32 42 48 49 43 28 36 46 45 45 41 43 22 26 6 16 50 91 100 114 130 159 184 267 263 240 182 36 -14 39 88
96 57 113 106 73 55 53 56 41 32 14 7 22 35 24 19 14 7 11 10 3 -4 -18 -50 -57 -47 -67 -65 -31 -9 -1 36 107 132 148 194 241 274 202 155 100 71 73 136
127 183 56 77 60 43 38 34 10 1 -7 -0 23 36 39 27 27 -32 -62 -29 -9 -71 -76 -56 -45 -34 -2 27 24 58 163 208 216 171 156 186 229 236 224 164 166 155 199 217
67 7 99 61 39 19 18 5 -6 -6 4 5 23 35 58 58 47 -29 71 52 -56 -60 -47 -39 -22 8 66 95 112 148 97 36 68 126 116 191 171 168 182 190 205 230 255 307
83 48 23 28 17 11 -5 -0 -1 24 20 26 23 45 62 77 79 -22 -43 28 -46 -32 -25 -18 6 34 52 160 163 97 93 84 100 122 153 165 162 144 191 215 252 293 260 243
46 29 42 45 42 53 45 40 54 62 47 44 40 42 59 73 85 -41 -32 -36 -47 -57 -27 -9 34 42 27 57 131 135 77 108 131 154 154 159 168 189 236 276 319 272 215 189
58 78 79 106 110 95 68 58 56 53 49 50 44 33 40 60 80 93 -32 -51 -53 -53 -3 -15 46 55 31 32 43 59 79 112 148 185 160 209 257 257 280 302 242 212 192 172
53 50 73 80 80 57 44 42 47 47 49 56 50 38 29 19 39 69 51 -54 -37 -29 -40 -23 -8 38 50 35 26 19 50 71 90 98 92 110 138 162 183 175 204 202 172 108
67 46 44 45 45 60 68 71 50 47 44 49 39 37 28 22 17 16 -26 -31 -37 -5 -23 -40 -20 4 14 29 32 45 58 69 79 91 85 101 114 114 121 153 143 86 73 96
99 85 79 74 68 59 58 71 78 84 82 68 61 46 31 19 19 7 13 -1 -13 -19 -3 -16 -16 13 -9 10 30 38 59 75 64 77 91 61 77 76 75 84 87 106 101 87
82 91 91 88 93 99 96 86 80 71 80 64 68 65 53 43 24 11 -3 9 3 -17 -6 3 4 12 20 -0 3 16 25 37 44 50 60 88 91 108 109 95 87 78 74 81
89 107 89 83 84 104 96 107 109 63 53 55 63 63 57 57 44 42 5 -6 -1 2 -14 10 10 20 16 5 9 13 17 27 43 51 64 65 67 75 76 82 86 88 82 81
93 91 110 112 115 125 111 91 67 56 78 -6 67 101 66 16 15 24 3 -37 1 11 5 2 28 17 15 22 19 24 35 37 28 36 51 63 76 82 90 96 95 96 96 96
112 105 105 97 96 89 84 68 60 60 33 11 34 66 61 18 -9 12 16 -0 3 17 16 13 10 32 15 19 26 37 42 45 52 58 55 57 63 69 76 78 82 85 89 91
114 97 89 99 102 83 84 92 88 68 32 -49 -38 21 47 48 10 -0 22 22 22 22 19 16 15 17 39 36 34 36 43 57 58 57 63 63 69 71 74 72 74 81 87 94

GFSNGP_con_3kmhel_228.txt.gz
Helicity
114 67 102 61 21 30 -18 -62 63 108 80 31 21 58 -13 -56 -44 -23 -70 -115 -47 -11 53 9 34 16 -4 69 215 249 185 121 117 166 174 144 151 114 85 105 89 127 94 94
71 49 94 90 60 28 6 37 15 -11 62 -45 12 8 -47 -40 -10 -70 -67 -86 -121 -65 -50 -30 -23 -19 -35 -52 -33 -5 -19 20 29 72 71 128 180 176 106 68 53 80 121 153
34 73 17 37 77 26 76 24 14 57 87 23 52 136 35 37 91 85 37 1 -12 -20 -7 -11 -39 -52 -29 10 21 26 55 69 63 48 75 63 76 156 160 130 99 86 93 158
-34 24 39 33 79 69 248 216 132 86 125 145 146 189 205 144 140 152 158 136 115 84 49 10 12 26 9 2 13 37 67 78 92 95 104 97 93 85 87 85 127 130 135 78
-22 43 54 101 175 208 109 262 304 242 225 209 184 219 218 135 130 143 131 90 69 58 17 39 38 35 20 19 16 25 36 72 93 100 90 112 108 105 74 80 68 82 68 86
15 50 64 47 146 205 55 126 259 288 250 173 86 119 96 66 59 75 50 29 41 44 42 49 52 37 18 17 14 28 28 27 41 66 77 93 105 113 104 93 82 68 86 64
-16 6 30 48 12 54 109 120 55 26 52 69 67 23 19 40 51 30 22 38 54 62 49 25 28 5 20 27 21 28 38 37 42 53 51 69 99 127 109 130 154 100 78 70
-13 -17 9 104 52 34 25 54 72 56 37 45 55 82 78 67 47 34 35 35 34 30 43 52 44 31 10 -3 4 26 27 21 31 43 34 41 40 85 122 164 160 132 118 78
-21 -25 -8 27 68 -31 -30 -35 -3 7 6 13 31 37 43 46 59 61 56 54 40 52 58 67 67 70 67 46 29 20 11 31 26 28 42 43 37 48 82 136 157 161 131 106
-49 -17 -58 20 12 -30 1 11 -9 -7 10 40 53 56 47 34 21 20 31 33 26 19 21 27 44 56 50 62 72 64 41 11 -22 -0 17 37 60 71 102 105 132 149 124 103
-92 -110 -94 -63 -64 -5 36 24 22 50 53 47 36 15 -0 5 31 54 63 65 63 62 65 65 68 62 56 56 57 60 58 53 32 1 -27 1 44 91 127 143 158 173 143 100
-46 -67 -34 -11 17 41 65 43 32 47 46 18 5 15 23 20 25 20 -7 9 31 38 44 48 58 56 54 53 48 47 43 31 24 34 49 33 26 35 48 130 151 113 104 96
15 66 72 74 104 70 46 29 31 35 27 22 35 31 13 14 22 30 48 53 48 37 32 40 33 36 34 23 31 47 75 80 86 79 97 96 88 98 92 130 172 157 123 47
139 166 186 133 91 54 23 30 40 52 40 25 27 19 17 23 40 55 57 51 52 68 60 1 -37 -23 -11 -14 -21 -22 -40 -21 5 74 101 121 139 142 161 166 206 236 160 86
94 152 157 98 97 47 27 21 23 25 18 17 14 17 17 24 42 46 71 37 41 68 -40 -24 -14 -19 -18 -19 1 19 32 125 141 158 175 189 177 148 180 194 215 246 231 155
74 73 83 43 32 32 28 28 11 10 15 14 16 26 32 33 48 47 96 36 15 -49 -52 -34 -27 -22 4 1 37 66 97 104 103 111 79 128 156 135 177 193 197 205 167 131
86 78 51 33 29 41 37 26 29 27 22 28 31 36 43 40 38 45 65 89 53 20 -60 -33 -2 -9 10 -9 11 71 130 70 50 86 113 71 90 100 165 156 167 159 133 149
83 80 69 64 58 61 65 54 44 44 36 34 42 44 47 41 32 31 42 43 -1 3 -37 -45 -16 -1 9 -7 -19 1 45 59 30 55 65 111 120 151 172 155 153 190 194 245
107 116 126 118 94 69 42 32 44 48 42 37 45 42 39 36 34 34 29 27 -30 -40 -8 -21 -21 -8 2 -3 -20 -19 -1 26 41 55 46 50 87 115 146 161 177 193 202 241
107 122 133 110 83 65 56 81 78 66 56 65 67 72 57 51 36 33 35 11 -8 -38 -24 -13 -29 -16 6 2 1 -6 -0 8 18 32 124 154 111 140 182 200 193 227 239 203
105 98 100 110 100 73 61 59 86 88 89 109 100 99 78 70 61 46 25 18 17 -4 -23 -4 -14 -20 -20 -10 -8 12 2 19 33 26 68 91 165 214 208 228 236 190 187 200
108 106 113 132 126 109 99 93 94 99 92 96 108 108 85 84 67 46 27 11 8 -10 -25 -10 -0 2 -15 -17 -8 -9 5 27 67 44 33 68 98 128 142 146 151 152 142 148
78 78 85 95 110 115 127 142 121 102 106 86 68 63 81 73 72 59 39 14 -18 -23 -20 -25 12 13 4 -11 -16 -3 -5 7 14 30 54 49 86 124 134 138 130 128 120 127
85 107 115 126 134 123 111 108 88 78 83 55 28 46 54 85 67 40 7 3 1 -32 -22 -8 2 26 17 -3 -7 -5 7 9 24 33 53 51 43 48 62 68 89 111 125 121
128 124 113 112 102 99 96 90 97 101 87 75 52 47 94 32 34 31 11 -10 -5 -18 -20 10 18 26 14 18 12 13 22 13 17 33 39 37 47 60 74 82 87 90 91 97
132 104 91 98 96 95 97 105 127 91 79 87 59 -15 -32 17 44 57 20 -10 -17 4 3 1 12 9 25 15 17 14 17 32 27 24 28 32 42 59 77 87 92 100 93 94
121 123 123 115 102 108 113 106 98 77 59 46 35 30 39 62 73 77 55 9 -12 3 15 6 13 18 12 36 28 26 25 30 41 41 43 47 51 56 64 69 76 86 91 91

GFSNGP_con_3kmhel_231.txt.gz
Helicity
199 19 61 141 146 45 -34 -49 55 133 130 10 62 93 106 5 20 -28 -79 -89 -38 -44 25 -4 83 137 237 188 171 243 515 391 357 279 289 300 280 289 266 282 238 203 148 153
41 23 118 149 175 79 42 27 1 28 24 38 8 -1 4 -4 -75 -126 -149 -142 -108 -104 -60 -34 -38 -115 -99 -75 -17 -17 15 190 220 157 162 216 264 215 186 113 154 149 144 127
56 83 -3 69 129 137 104 167 45 37 49 75 131 84 109 190 119 33 -3 -42 -52 -71 -69 -60 -60 -32 -21 -71 -56 -38 6 1 33 41 58 182 149 90 123 85 145 155 137 147
53 115 44 43 90 71 116 253 118 122 106 87 62 101 121 82 67 66 34 18 32 10 9 -8 -21 -19 -21 6 9 6 -4 29 39 45 38 51 92 121 79 78 66 37 67 131
12 91 91 44 130 218 178 200 215 173 131 75 39 101 121 55 23 9 11 -11 -29 -35 -41 -28 -20 -20 -18 5 1 8 11 8 18 24 23 41 61 75 111 144 86 67 62 66
28 24 43 49 123 56 39 151 204 191 192 103 26 52 9 2 -23 -22 -18 -4 12 -3 -38 -18 -24 -30 -20 -11 -23 -26 -17 2 7 -3 -2 23 42 70 54 52 100 117 85 60
-28 19 14 -2 81 56 70 100 137 69 112 39 -3 -14 -6 13 32 22 13 18 10 -11 -24 -5 17 10 -16 -29 -34 3 21 7 -7 -5 -13 -9 -6 8 30 54 76 80 120 126
-10 -10 16 53 30 58 0 13 47 24 0 -6 -2 18 15 13 20 24 17 12 13 15 23 28 25 11 23 27 17 14 -6 -12 11 21 15 6 -6 -3 14 7 20 90 104 108
-44 -27 -78 -61 -53 -72 -35 -9 -47 -55 -25 -28 -14 -11 -21 -21 -10 4 12 16 21 23 18 0 1 17 37 39 36 39 25 12 -4 8 23 28 31 42 24 -5 41 74 99 122
4 -39 -57 -81 -8 -2 6 -37 -14 -8 -10 0 4 19 14 -2 -8 2 21 40 54 51 33 34 27 36 31 52 58 51 47 35 1 -23 -36 -36 21 52 58 61 61 91 108 118
-40 -66 -5 32 0 13 16 23 15 16 11 9 8 2 -2 1 -9 -11 9 22 23 24 27 22 28 41 48 34 20 25 33 48 57 40 5 -10 -10 -7 29 78 98 106 114 131
38 10 49 -8 66 59 34 7 5 18 22 17 22 22 12 1 0 11 7 9 16 34 43 39 35 35 35 53 47 39 36 30 26 31 28 25 21 16 15 39 67 91 96 135
70 102 141 159 125 52 30 -7 -5 18 24 21 24 24 13 10 19 19 27 33 37 31 39 34 22 11 19 10 18 23 28 39 40 46 49 52 62 73 64 41 37 84 122 132
48 143 173 156 91 89 49 15 15 12 20 17 15 12 18 14 14 22 31 38 62 68 50 70 60 71 67 84 31 -25 -46 -34 12 38 56 64 73 75 103 120 113 107 129 143
54 69 106 142 103 38 9 1 15 19 9 2 5 17 19 18 15 25 40 41 59 55 33 38 -28 -17 29 7 -32 -30 -16 3 -4 33 94 94 119 137 147 144 129 106 143 178
63 76 89 82 60 27 8 -2 -8 -4 24 30 30 35 41 33 33 40 50 59 36 39 28 0 -37 -31 -13 -8 -25 -36 -31 -2 2 -12 41 79 143 144 111 130 128 130 146 157
64 53 65 66 62 47 29 18 1 -2 15 35 46 50 51 46 47 51 56 65 55 52 48 26 -40 -26 -24 -29 -34 -24 -40 -24 -11 91 87 109 125 145 117 108 104 120 142 173
92 84 85 84 90 87 54 24 8 6 16 39 49 73 72 69 66 56 50 52 48 39 38 38 -1 -23 -32 -36 -42 -45 -39 -14 59 86 83 70 92 129 94 53 92 149 160 98
126 125 120 125 131 124 99 61 32 40 52 46 65 72 90 89 87 74 71 63 40 11 42 29 9 -17 -21 -17 -20 -32 -15 6 33 42 54 18 35 47 80 101 142 167 135 75
134 136 137 138 131 145 136 108 82 81 85 93 68 73 106 109 97 82 76 73 57 17 12 0 -4 -6 -6 -21 -17 -40 -31 -13 -15 -1 50 58 43 49 66 88 107 102 92 113
104 96 103 113 122 127 128 123 129 125 108 109 113 107 88 87 86 80 73 65 58 24 4 -17 -18 -10 -5 -20 -28 -39 -26 -8 -7 4 52 67 94 117 108 119 110 106 119 181
98 89 79 92 91 93 105 121 132 128 129 129 107 86 75 57 54 74 71 58 47 16 6 -15 -18 -13 -2 -8 -24 -21 -22 2 -11 -9 8 17 107 140 149 171 151 189 191 199
86 86 90 102 99 88 88 97 101 107 111 111 101 60 72 73 54 56 34 37 35 14 0 -9 -8 -1 8 -8 -11 -9 -14 -2 -7 -8 9 36 34 76 93 104 124 153 179 204
97 103 112 106 97 85 72 78 85 87 112 115 106 98 68 54 58 63 38 40 24 6 -20 -8 -1 4 -3 -7 -1 -5 -4 -9 6 12 9 16 32 76 126 128 121 126 132 143
129 109 100 104 97 71 59 59 66 72 94 100 84 74 35 -30 -20 -8 12 15 20 8 -17 -1 4 7 -16 -5 -5 -1 5 -7 3 25 29 19 24 17 37 61 82 80 72 68
143 97 80 88 84 68 57 55 65 69 73 75 68 56 50 48 47 44 48 59 59 28 -3 -10 -5 -4 -9 -12 -11 3 3 10 7 23 34 40 39 38 46 54 59 65 66 68
129 101 90 103 94 87 75 67 71 75 73 69 63 43 43 50 66 53 34 33 30 27 5 -14 -3 -2 -9 -15 -10 3 12 9 18 16 28 30 38 41 43 48 53 50 68 91